Welcome to Des Moines Iowa Weather. I am an independent private personal weather station on the Northwest Side of Des Moines, Iowa. Just East of Windsor Heights and just West of Glendale . This site is also mobile friendly.

There are no active watches, warnings or advisories


Visit our other weather sites:

Historical Data

Weather Station Setup



Weather Underground History page Text

Daily Summary for November 15, 2017 Units:  English    Metric   Both
« Previous Day
Next Day »
Daily Weekly Monthly Yearly Custom
  High: Low: Average:
Temperature: 51.8 °F 27.2 °F 42.9 °F
Dew Point: 51.0 °F 22.0 °F 36.4 °F
Humidity: 97 % 58 % 79 %
Wind Speed: 11.0 mph 0.0 mph 2.9 mph
Wind Gust: 19.0 mph - -
Wind:- - South
Pressure: 30.20 in 29.82 in -
Precipitation: 0.01 in    
Historical Graphs
 
 
Tabular Data for November 15, 2017
Time Temperature Dew Point Pressure Wind Wind Speed Wind Gust Humidity Rainfall Rate (Hourly)
00:01 50.9 °F 50.0 °F 29.86 in Calm   2.0 mph 97 % 0.02 in
00:16 50.9 °F 50.0 °F 29.86 in Calm   2.0 mph 97 % 0.01 in
00:31 51.0 °F 50.0 °F 29.85 in Calm   3.0 mph 97 % 0.01 in
00:47 51.0 °F 50.0 °F 29.84 in Calm   4.0 mph 97 % 0.01 in
01:01 51.0 °F 50.0 °F 29.82 in Calm   4.0 mph 97 % 0.00 in
01:16 51.0 °F 50.0 °F 29.82 in Calm   2.0 mph 97 % 0.00 in
01:32 51.0 °F 50.0 °F 29.84 in Calm   2.0 mph 97 % 0.00 in
01:47 51.1 °F 50.0 °F 29.85 in Calm   2.0 mph 97 % 0.00 in
02:01 51.2 °F 50.0 °F 29.85 in Calm     97 % 0.00 in
02:17 51.2 °F 50.0 °F 29.85 in Calm     97 % 0.00 in
02:31 51.4 °F 51.0 °F 29.85 in Calm     97 % 0.01 in
02:46 51.5 °F 51.0 °F 29.84 in Calm   1.0 mph 97 % 0.01 in
03:01 51.6 °F 51.0 °F 29.83 in Calm     97 % 0.01 in
03:16 51.6 °F 51.0 °F 29.82 in Calm   1.0 mph 97 % 0.01 in
03:32 51.8 °F 51.0 °F 29.83 in Calm   1.0 mph 97 % 0.00 in
03:47 51.7 °F 51.0 °F 29.83 in North 3.0 mph 6.0 mph 97 % 0.00 in
04:01 50.8 °F 50.0 °F 29.85 in North 1.0 mph 9.0 mph 97 % 0.00 in
04:17 49.5 °F 48.0 °F 29.86 in WNW 3.0 mph 13.0 mph 96 % 0.00 in
04:32 48.5 °F 48.0 °F 29.86 in West 4.0 mph 5.0 mph 96 % 0.00 in
04:51 48.1 °F 47.0 °F 29.87 in NW 8.0 mph 11.0 mph 96 % 0.00 in
05:06 47.9 °F 47.0 °F 29.88 in NW 3.0 mph 10.0 mph 95 % 0.00 in
05:21 47.9 °F 46.0 °F 29.89 in WNW 4.0 mph 13.0 mph 94 % 0.00 in
05:36 47.8 °F 46.0 °F 29.90 in NW 9.0 mph 12.0 mph 94 % 0.00 in
05:51 47.8 °F 46.0 °F 29.91 in WNW 2.0 mph 14.0 mph 93 % 0.00 in
06:06 47.5 °F 45.0 °F 29.91 in WNW 4.0 mph 14.0 mph 91 % 0.00 in
06:22 46.8 °F 44.0 °F 29.92 in NW 6.0 mph 12.0 mph 90 % 0.00 in
06:36 46.2 °F 43.0 °F 29.93 in NW 3.0 mph 12.0 mph 89 % 0.00 in
06:51 45.5 °F 43.0 °F 29.93 in North 2.0 mph 14.0 mph 89 % 0.00 in
07:00 45.0 °F 42.0 °F 29.94 in North 2.0 mph 14.0 mph 88 % 0.00 in
07:15 44.0 °F 39.0 °F 29.95 in North 4.0 mph 17.0 mph 83 % 0.00 in
07:30 43.4 °F 38.0 °F 29.97 in North 1.0 mph 12.0 mph 82 % 0.00 in
07:45 43.0 °F 38.0 °F 29.97 in North 6.0 mph 13.0 mph 82 % 0.00 in
08:00 42.9 °F 38.0 °F 29.98 in North 3.0 mph 10.0 mph 82 % 0.00 in
08:10 42.9 °F 38.0 °F 29.99 in North 10.0 mph 13.0 mph 82 % 0.00 in
08:24 43.1 °F 37.0 °F 29.99 in North 1.0 mph 13.0 mph 80 % 0.00 in
08:39 43.4 °F 37.0 °F 29.99 in North 3.0 mph 9.0 mph 79 % 0.00 in
08:54 43.6 °F 37.0 °F 30.00 in North 6.0 mph 11.0 mph 78 % 0.00 in
09:09 43.9 °F 37.0 °F 30.00 in North 5.0 mph 11.0 mph 77 % 0.00 in
09:24 44.1 °F 38.0 °F 30.00 in North 2.0 mph 10.0 mph 78 % 0.00 in
09:39 44.8 °F 38.0 °F 30.00 in North 2.0 mph 11.0 mph 76 % 0.00 in
09:54 45.0 °F 38.0 °F 30.00 in North 2.0 mph 12.0 mph 75 % 0.00 in
10:10 45.4 °F 38.0 °F 30.00 in North 3.0 mph 16.0 mph 75 % 0.00 in
10:29 46.1 °F 38.0 °F 30.00 in North 11.0 mph 14.0 mph 73 % 0.00 in
10:44 46.6 °F 38.0 °F 30.01 in North 4.0 mph 13.0 mph 72 % 0.00 in
10:59 47.1 °F 38.0 °F 30.01 in North 5.0 mph 14.0 mph 71 % 0.00 in
11:14 47.8 °F 38.0 °F 30.00 in North 9.0 mph 19.0 mph 69 % 0.00 in
11:29 48.4 °F 38.0 °F 30.00 in North 5.0 mph 16.0 mph 67 % 0.00 in
11:45 48.8 °F 38.0 °F 30.00 in North 10.0 mph 10.0 mph 66 % 0.00 in
11:59 49.4 °F 38.0 °F 30.00 in North 2.0 mph 16.0 mph 66 % 0.00 in
12:14 50.3 °F 38.0 °F 30.00 in North 2.0 mph 13.0 mph 62 % 0.00 in
12:30 50.5 °F 38.0 °F 30.01 in North 2.0 mph 11.0 mph 62 % 0.00 in
12:44 50.1 °F 37.0 °F 30.01 in North 3.0 mph 15.0 mph 60 % 0.00 in
12:59 49.9 °F 37.0 °F 30.01 in North 3.0 mph 14.0 mph 61 % 0.00 in
13:14 50.1 °F 37.0 °F 30.01 in North 2.0 mph 9.0 mph 60 % 0.00 in
13:30 49.5 °F 36.0 °F 30.02 in North 5.0 mph 19.0 mph 59 % 0.00 in
13:44 49.0 °F 35.0 °F 30.02 in NW 3.0 mph 17.0 mph 58 % 0.00 in
14:00 48.4 °F 34.0 °F 30.03 in NW 1.0 mph 15.0 mph 58 % 0.00 in
14:15 47.6 °F 35.0 °F 30.03 in North 5.0 mph 16.0 mph 61 % 0.00 in
14:30 47.0 °F 35.0 °F 30.03 in North 1.0 mph 14.0 mph 64 % 0.00 in
14:45 45.7 °F 34.0 °F 30.05 in North 6.0 mph 18.0 mph 63 % 0.00 in
15:00 43.8 °F 31.0 °F 30.06 in NNE 10.0 mph 14.0 mph 62 % 0.00 in
15:15 42.6 °F 31.0 °F 30.07 in North 4.0 mph 15.0 mph 65 % 0.00 in
15:30 41.9 °F 31.0 °F 30.08 in NNW 3.0 mph 13.0 mph 66 % 0.00 in
15:45 41.4 °F 31.0 °F 30.08 in NW 5.0 mph 11.0 mph 66 % 0.00 in
16:00 41.0 °F 30.0 °F 30.09 in North 5.0 mph 15.0 mph 65 % 0.00 in
16:15 40.5 °F 29.0 °F 30.10 in NW 5.0 mph 14.0 mph 65 % 0.00 in
16:30 40.1 °F 28.0 °F 30.11 in West 8.0 mph 17.0 mph 63 % 0.00 in
16:45 39.7 °F 28.0 °F 30.11 in WNW 2.0 mph 11.0 mph 63 % 0.00 in
17:00 39.2 °F 28.0 °F 30.12 in WNW 3.0 mph 9.0 mph 64 % 0.00 in
17:15 38.3 °F 28.0 °F 30.13 in NW 4.0 mph 11.0 mph 66 % 0.00 in
17:30 37.3 °F 27.0 °F 30.13 in WNW 4.0 mph 10.0 mph 67 % 0.00 in
17:45 36.4 °F 27.0 °F 30.13 in WNW 2.0 mph 11.0 mph 68 % 0.00 in
18:01 35.7 °F 26.0 °F 30.14 in WNW 1.0 mph 11.0 mph 69 % 0.00 in
18:15 35.1 °F 26.0 °F 30.15 in WNW 3.0 mph 18.0 mph 69 % 0.00 in
18:30 34.5 °F 26.0 °F 30.16 in North 3.0 mph 5.0 mph 70 % 0.00 in
18:46 34.0 °F 26.0 °F 30.16 in NW 3.0 mph 9.0 mph 71 % 0.00 in
19:00 33.5 °F 25.0 °F 30.16 in NNW 5.0 mph 9.0 mph 71 % 0.00 in
19:15 33.1 °F 25.0 °F 30.17 in NW 1.0 mph 5.0 mph 72 % 0.00 in
19:30 32.7 °F 25.0 °F 30.16 in NW 3.0 mph 6.0 mph 72 % 0.00 in
19:45 32.2 °F 24.0 °F 30.17 in NW 4.0 mph 9.0 mph 73 % 0.00 in
20:00 31.9 °F 25.0 °F 30.16 in Calm   3.0 mph 74 % 0.00 in
20:15 31.4 °F 24.0 °F 30.17 in NW 3.0 mph 5.0 mph 75 % 0.00 in
20:30 31.1 °F 24.0 °F 30.18 in Calm   2.0 mph 75 % 0.00 in
21:00 30.2 °F 24.0 °F 30.18 in Calm   2.0 mph 77 % 0.00 in
21:30 29.4 °F 24.0 °F 30.19 in NW 3.0 mph 5.0 mph 79 % 0.00 in
21:42 29.3 °F 24.0 °F 30.18 in NNW 1.0 mph 8.0 mph 79 % 0.00 in
21:57 29.2 °F 24.0 °F 30.19 in Calm   8.0 mph 80 % 0.00 in
22:12 29.0 °F 24.0 °F 30.20 in NNW 1.0 mph 8.0 mph 80 % 0.00 in
22:27 28.9 °F 23.0 °F 30.20 in Calm   4.0 mph 80 % 0.00 in
22:42 28.6 °F 23.0 °F 30.19 in NW 5.0 mph 6.0 mph 80 % 0.00 in
22:57 28.5 °F 23.0 °F 30.19 in NW 2.0 mph 5.0 mph 80 % 0.00 in
23:12 28.3 °F 23.0 °F 30.20 in NW 1.0 mph 4.0 mph 81 % 0.00 in
23:27 27.9 °F 23.0 °F 30.20 in NW 2.0 mph 6.0 mph 81 % 0.00 in
23:42 27.5 °F 23.0 °F 30.20 in Calm   3.0 mph 82 % 0.00 in
23:57 27.2 °F 22.0 °F 30.20 in Calm   2.0 mph 82 % 0.00 in
Des Moines Weather and Climate
Compliments of Weather Underground - 3 mb

Script developed by  Jim McMurry - jmcmurry@mwt.net Adapted for the template by  Wim van der Kuil - Leuven-Template.eu

You find our weather info also at:

Weather Underground

Equipment we use:

Weather-station
Davis VP2 Plus

Weather-program
Davis Weatherlink.Com

Weather-server
iMac (Retina 4K, 21.5-inch, Late 2015)

Provider
Hostmonster.com

Davis VP2 Plus

Davis Weatherlink.Com

iMac (Retina 4K, 21.5-inch, Late 2015)

Hostmonster.com